Flag for Russia Weather past 2 weeks in Murmansk, Russia

Now
16 °F

Partly cloudy.


Feels Like: 3 °F
Forecast: 4 / 15 °F
Wind: 10 mph from East

Location: Murmansk Airport

Current Time: Jan 29, 2015 at 7:49:54 AM

Latest Report: Jan 29, 2015 at 7:00 AM


Visibility: N/A

Pressure: 29.30 "Hg

Humidity: 79%

Dew point: 10 °F

Location of MurmanskLocation

Historic Weather in Murmansk — Graph

°F

Murmansk temperature yesterday

Maximum temperature yesterday: 23 °F (at 12:00 AM)
Minimum temperature yesterday: 19 °F (at 5:30 PM)
Average temperature yesterday: 22 °F

Past Weeks' High & Low Weather Summary

 TemperatureHumidityPressure
High30 °F (Jan 27, 8:00 AM)100% (Jan 18, 8:30 AM)30.45 "Hg (Jan 18, 8:30 AM)
Low-22 °F (Jan 24, 10:00 PM)56% (Jan 21, 12:00 AM)29.03 "Hg (Jan 16, 10:30 PM)
Average9 °F81%29.72 "Hg
* Reported Jan 14 6:00 AM — Jan 29 6:30 AM, Murmansk, Weather by CustomWeather, © 2014

Note: Actual official high and low records may vary slightly from our data, if they occured in-between our weather recording intervals... More about our weather records

Advertising

Murmansk weather history for previous 24 hours

 ConditionsComfort  
Time TempWeatherWind HumidityBarometerVisibility
6:30 AM
Jan 29
16 °FPartly cloudy.10 mph79%29.30 "HgN/A
6:00 AM16 °FSnow flurries. Passing clouds.8 mph79%29.27 "HgN/A
5:30 AM18 °FSnow flurries. Passing clouds.13 mph73%29.27 "HgN/A
5:00 AM18 °FSnow flurries. Passing clouds.13 mph79%29.24 "HgN/A
4:30 AM18 °FSnow flurries. Passing clouds.13 mph79%29.24 "Hg4 mi
4:00 AM18 °FSnow flurries. Passing clouds.10 mph86%29.24 "Hg3 mi
3:30 AM19 °FSnow flurries. Passing clouds.13 mph79%29.24 "Hg2 mi
3:00 AM19 °FSnow flurries. Passing clouds.13 mph79%29.21 "Hg5 mi
2:30 AM19 °FSnow flurries. Passing clouds.13 mph79%29.21 "Hg5 mi
2:00 AM19 °FSnow flurries. Passing clouds.10 mph86%29.21 "Hg2 mi
1:30 AM19 °FSnow flurries. Passing clouds.13 mph86%29.18 "Hg2 mi
1:00 AM19 °FSnow flurries. Passing clouds.13 mph86%29.18 "Hg3 mi
12:30 AM21 °FSnow flurries. Passing clouds.13 mph80%29.18 "Hg2 mi
12:00 AM21 °FSnow flurries. Passing clouds.15 mph80%29.15 "Hg2 mi
11:30 PM
Jan 28
21 °FSnow flurries. Passing clouds.15 mph80%29.15 "Hg3 mi
11:00 PM21 °FSnow flurries. Passing clouds.17 mph86%29.12 "Hg2 mi
10:30 PM21 °FSnow showers. Ice fog.15 mph86%29.12 "Hg1 mi
10:00 PM21 °FSnow showers. Ice fog.15 mph86%29.12 "Hg1 mi
9:30 PM21 °FSnow showers. Ice fog.13 mph86%29.12 "Hg1 mi
9:00 PM21 °FSnow flurries. Passing clouds.10 mph93%29.09 "Hg1 mi
8:30 PM21 °FSnow flurries. Passing clouds.8 mph93%29.12 "Hg2 mi
8:00 PM21 °FSnow flurries. Passing clouds.8 mph86%29.09 "Hg2 mi
7:30 PM21 °FSnow flurries. Passing clouds.3 mph86%29.09 "Hg2 mi
7:00 PM21 °FSnow showers. Passing clouds.3 mph86%29.12 "Hg1 mi
6:30 PM21 °FSnow showers. Passing clouds.3 mph86%29.12 "Hg1 mi
6:00 PM19 °FSnow flurries. Passing clouds.3 mph93%29.12 "Hg1 mi
5:30 PM19 °FSnow flurries. Passing clouds.1 mph93%29.12 "Hg2 mi
5:00 PM21 °FSnow flurries. Passing clouds.3 mph86%29.12 "Hg2 mi
4:30 PM21 °FSnow flurries. Passing clouds.No wind86%29.12 "Hg3 mi
4:00 PM21 °FSnow flurries. Partly sunny.1 mph86%29.12 "Hg3 mi
3:30 PM21 °FSnow flurries. Partly sunny.1 mph86%29.12 "Hg4 mi
3:00 PM21 °FPartly sunny.No wind86%29.12 "HgN/A
2:30 PM21 °FPartly sunny.3 mph86%29.12 "HgN/A
2:00 PM21 °FPartly sunny.6 mph86%29.15 "HgN/A
1:30 PM21 °FPartly sunny.3 mph86%29.15 "HgN/A
1:00 PM21 °FPartly sunny.3 mph93%29.15 "HgN/A
12:30 PM21 °FPartly sunny.3 mph93%29.15 "HgN/A
12:00 PM21 °FPartly sunny.3 mph93%29.15 "HgN/A
11:30 AM21 °FSnow flurries. Passing clouds.3 mph93%29.15 "HgN/A
11:00 AM21 °FSnow flurries. Passing clouds.1 mph93%29.15 "Hg5 mi
10:30 AM21 °FSnow flurries. Passing clouds.3 mph93%29.15 "Hg2 mi
10:00 AM21 °FSnow flurries. Passing clouds.1 mph93%29.15 "Hg1 mi
9:30 AM23 °FSnow showers. Ice fog.1 mph93%29.15 "Hg1 mi
9:00 AM23 °FSnow showers. Ice fog.1 mph93%29.15 "Hg1 mi
8:30 AM23 °FSnow showers. Ice fog.No wind93%29.18 "Hg1 mi
8:00 AM23 °FSnow showers. Ice fog.No wind93%29.18 "Hg1 mi
7:30 AM23 °FSnow showers. Ice fog.No wind93%29.18 "Hg1 mi
7:00 AM23 °FSnow flurries. Partly cloudy.No wind93%29.18 "Hg1 mi
Weather by CustomWeather, © 2014

See weather overviewHow to use our weather pages